Location: Cerezo de Arriba
(41.2389°N, 3.5585°W)
Time: 03:39:42
(UTC+00:00)

SeaSat 1 - Pass Details

Date: 19 May 2025
Orbit: 738 x 740 km, 108.0° (Epoch: 23 June)

Event Time Altitude Azimuth Distance (km) Brightness Sun altitude
Exits shadow 23:16:26 36° 264° (W) 1,156 3.4 -27.5°
Drops below altitude 10° 23:20:28 10° 317° (NW) 2,254 5.7 -27.7°
Sets 23:22:54 0° 326° (NW) 3,181 6.8 -27.8°
